Latest  Newer  Older  Last 2 hours animation  Current image  Latest image 
Rain/snow radar  Infrared sat images 
Real-time lightning map

All time is UTC (add 2 hours to UTC in wintertime, 3 hours to UTC in DST for Latvia local time)

2022/09/26 11:20 EVRA 261120Z 16010KT 9999 FEW030 16/08 Q1006 NOSIG
2022/09/26 11:20 EVLA 261120Z AUTO /////KT ///V/// CAVOK 14/09 Q1004
2022/09/26 11:20 EVVA 261120Z AUTO 17009KT CAVOK 16/09 Q1003
2022/09/26 11:20 EYKA 261120Z 18006KT 070V240 9999 FEW047 18/07 Q1007
2022/09/26 11:20 EYPA 261120Z 16008KT CAVOK 14/10 Q1005
2022/09/26 11:20 EYSA 261120Z 16010KT 120V190 CAVOK 16/08 Q1006 NOSIG
2022/09/26 11:20 EYVI 261120Z 18006KT 140V210 9999 BKN041 16/06 Q1007 NOSIG
2022/09/26 07:20 EEKA 260720Z 15008KT 9999 SCT017 13/10 Q1005
2022/09/26 11:20 EEKE 261120Z AUTO 16015KT 9999NDV NSC 15/10 Q1005
2022/09/26 11:20 EEPU 261120Z AUTO 20006KT 150V230 9999 NCD 14/09 Q1007
2022/09/26 11:20 EETN 261120Z 17010KT 9999 FEW030 14/04 Q1007 NOSIG
2022/09/26 11:20 EETU 261120Z 10006KT 9999 FEW031 12/05 Q1008
CD  STATION         ICAO  IATA  SYNOP   LAT     LONG   ELEV   M  N  V  U  A  C
   RIGA AIRPORT     EVRA               56 55N  023 58E   10   X     T          6 LV
   LIELVARDE        EVGA               56 47N  024 51E   61   X     T          7 LV
   LIEPAJA INTL     EVLA        26406  56 31N  021 06E    4   X                8 LV
   VENTPILS         EVVA               57 21N  021 33E    6   X                8 LV
   KAUNAS           EYKA               54 54N  023 55E   77   X     T          6 LT
   PALANGA INTL     EYPA               55 55N  021 03E   10   X                6 LT
   SIAULIAI INTL    EYSA               55 54N  023 24E  135   X     T          6 LT
   VILNIUS INTL     EYVI        26730  54 38N  025 17E  197   X     T          6 LT
   AMARI AIR BASE   EEEI               59 16N  024 12E   19   X     T          7 EE
   KARDLA           EEKA        26116  58 59N  022 50E    4   X                8 EE
   KURESSAARE       EEKE               58 14N  022 31E    4   X                8 EE
   PARNU            EEPU               58 25N  024 28E   14   X                8 EE
   TALLINN          EETN        26038  59 24N  024 49E   40   X     T          8 EE
   TARTU            EETU               58 19N  026 41E   67   X                8 EE

!   CD = 2 letter state (province) abbreviation
!   STATION = 16 character station long name
!   ICAO = 4-character international id
!   IATA = 3-character (FAA) id
!   SYNOP = 5-digit international synoptic number
!   LAT = Latitude (degrees minutes)
!   LON = Longitude (degree minutes)
!   ELEV = Station elevation (meters)
!   M = METAR reporting station.   Also Z=obsolete? site
!   N = NEXRAD (WSR-88D) Radar site
!   V = Aviation-specific flag (V=AIRMET/SIGMET end point, A=ARTCC T=TAF U=T+V)
!   U = Upper air (rawinsonde=X) or Wind Profiler (W) site
!   A = Auto (A=ASOS, W=AWOS, M=Meso, H=Human, G=Augmented) (H/G not yet impl.)
!   C = Office type F=WFO/R=RFC/C=NCEP Center
!   Digit that follows is a priority for plotting (0=highest)
!   Country code (2-char) is last column


cloud coverage image from sat24.com and METAR data from weather.noaa.gov